Location: Asheville, NC
(35.6000°N, 82.5500°W)
Time: 02:50:23
(UTC-05:00)

Vanguard 1 - Pass Details

Date: 10 December 2017
Orbit: 649 x 3834 km, 34.2° (Epoch: 21 January)

Event Time Altitude Azimuth Distance (km) Brightness Sun altitude
Rises 16:32:25 0° 282° (WNW) 5,051 14.4 6.9°
Reaches altitude 10° 16:36:49 10° 274° (W) 3,525 13.9 6.2°
Maximum altitude 16:43:37 29° 217° (SW) 1,712 12.5 5.1°
Drops below altitude 10° 16:48:11 10° 157° (SSE) 2,319 12.1 4.3°
Sets 16:50:29 0° 144° (SE) 3,084 12.6 3.9°
